Thief River Falls, MN

8:37 AM CST on February 09, 2016 (GMT -0600)
Thief River Falls Regional

Weather History for KTVF - January, 2014

Change the Weather History Date:

Monday, January 20, 2014

  Actual Average Record
Temperature  
Mean Temperature -8 °F -  
Max Temperature 8 °F 11 °F 33 °F (1981)
Min Temperature -25 °F 0 °F -27 °F (1984)
Degree Days  
Heating Degree Days 74    
Moisture  
Dew Point -12 °F    
Average Humidity 69    
Maximum Humidity 79    
Minimum Humidity 55    
Precipitation  
Precipitation 0.00 in - - ()
Sea Level Pressure  
Sea Level Pressure 30.23 in    
Wind  
Wind Speed 12 mph (North)    
Max Wind Speed 18 mph    
Max Gust Speed 22 mph    
Visibility 9 miles    
Events      
Averages and records for this station are not official NWS values.
T = Trace of Precipitation, MM = Missing Value Source: NWS Daily Summary

Daily Weather History Graph

Daily Weather History Graph

Search for Another Location

Airport or City:

Trip Planner

Search our weather history database for the weather conditions in past years. The results will help you decide how hot, cold, wet, or windy it might be!

Date:

Astronomy

Jan. 20, 2014 Rise Set
Actual Time 8:05 AM CST 5:06 PM CST
Civil Twilight 7:31 AM CST 5:40 PM CST
Nautical Twilight 6:53 AM CST 6:19 PM CST
Astronomical Twilight 6:16 AM CST 6:56 PM CST
Moon 10:06 PM CST (1/20) 9:43 AM CST (1/20)
Length of Visible Light 10h 09m
Length of Day
9h 00m
Waning Gibbous, 82% of the Moon is Illuminated
Jan 20
Waning Gibbous
Jan 23
Last Quarter
Jan 30
New
Feb 6
First Quarter
Feb 14
Full

Hourly Weather History & Observations

Time (CST) Temp. Windchill Dew Point Humidity Pressure Visibility Wind Dir Wind Speed Gust Speed Precip Events Conditions
12:15 AM 8.6 °F -6.3 °F 3.2 °F 79% 29.80 in 10.0 mi NNE 11.5 mph - N/A   Unknown
12:35 AM 8.6 °F -5.5 °F 1.4 °F 73% 29.81 in 8.0 mi NNE 10.4 mph - N/A   Unknown
12:55 AM 6.8 °F -6.9 °F 1.4 °F 79% 29.81 in 10.0 mi NNE 9.2 mph - N/A   Unknown
1:15 AM 6.8 °F -8.6 °F -0.4 °F 72% 29.83 in 10.0 mi NNE 11.5 mph - N/A   Unknown
1:35 AM 6.8 °F -8.6 °F -0.4 °F 72% 29.83 in 10.0 mi NNE 11.5 mph - N/A   Unknown
1:55 AM 5.0 °F -11.6 °F -0.4 °F 78% 29.84 in 10.0 mi NE 12.7 mph - N/A   Unknown
2:15 AM 5.0 °F -10.0 °F -2.2 °F 72% 29.86 in 10.0 mi NNE 10.4 mph - N/A   Unknown
2:35 AM 3.2 °F -11.3 °F -2.2 °F 78% 29.86 in 10.0 mi NNE 9.2 mph - N/A   Unknown
2:55 AM 3.2 °F -13.1 °F -2.2 °F 78% 29.88 in 10.0 mi NE 11.5 mph - N/A   Unknown
3:15 AM 3.2 °F -12.2 °F -4.0 °F 72% 29.89 in 10.0 mi NNE 10.4 mph - N/A   Unknown
3:35 AM 3.2 °F -13.1 °F -5.8 °F 66% 29.90 in 10.0 mi NNE 11.5 mph - N/A   Unknown
3:55 AM 1.4 °F -16.9 °F -5.8 °F 72% 29.91 in 10.0 mi NNE 13.8 mph 19.6 mph N/A   Unknown
4:15 AM 1.4 °F -16.1 °F -5.8 °F 72% 29.93 in 10.0 mi NNE 12.7 mph - N/A   Unknown
4:35 AM 1.4 °F -15.3 °F -5.8 °F 72% 29.94 in 10.0 mi NNE 11.5 mph - N/A   Unknown
4:55 AM 1.4 °F -16.1 °F -5.8 °F 72% 29.95 in 10.0 mi NE 12.7 mph - N/A   Unknown
5:15 AM -0.4 °F -17.6 °F -7.6 °F 72% 29.97 in 7.0 mi NNE 11.5 mph - N/A   Unknown
5:35 AM -0.4 °F -17.6 °F -7.6 °F 72% 29.99 in 10.0 mi NNE 11.5 mph - N/A   Unknown
5:55 AM -0.4 °F -17.6 °F -7.6 °F 72% 30.00 in 3.0 mi North 11.5 mph - N/A   Unknown
6:15 AM -0.4 °F -17.6 °F -7.6 °F 72% 30.01 in 6.0 mi NNE 11.5 mph - N/A   Unknown
6:35 AM -0.4 °F -16.7 °F -7.6 °F 72% 30.03 in 4.0 mi NNE 10.4 mph 17.3 mph N/A   Unknown
6:55 AM -2.2 °F -20.7 °F -7.6 °F 78% 30.05 in 5.0 mi NNE 12.7 mph - N/A   Unknown
7:15 AM -2.2 °F -21.5 °F -9.4 °F 71% 30.07 in 5.0 mi NNE 13.8 mph - N/A   Unknown
7:35 AM -2.2 °F -20.7 °F -9.4 °F 71% 30.07 in 5.0 mi NNE 12.7 mph - N/A   Unknown
7:55 AM -2.2 °F -22.9 °F -9.4 °F 71% 30.08 in 5.0 mi NNE 16.1 mph - N/A   Unknown
8:15 AM -2.2 °F -18.9 °F -9.4 °F 71% 30.10 in 5.0 mi NNE 10.4 mph - N/A   Unknown
8:35 AM -2.2 °F -22.9 °F -9.4 °F 71% 30.12 in 10.0 mi NNE 16.1 mph - N/A   Unknown
8:55 AM -2.2 °F -21.5 °F -11.2 °F 66% 30.14 in 10.0 mi NNE 13.8 mph 20.7 mph N/A   Unknown
9:15 AM -2.2 °F -22.2 °F -11.2 °F 66% 30.16 in 10.0 mi NNE 15.0 mph - N/A   Unknown
9:35 AM -2.2 °F -19.9 °F -11.2 °F 66% 30.18 in 10.0 mi NNE 11.5 mph - N/A   Unknown
9:55 AM -2.2 °F -21.5 °F -11.2 °F 66% 30.21 in 10.0 mi NNE 13.8 mph 19.6 mph N/A   Unknown
10:15 AM -4.0 °F -24.5 °F -13.0 °F 65% 30.22 in 10.0 mi North 15.0 mph - N/A   Unknown
10:35 AM -4.0 °F -26.4 °F -11.2 °F 71% 30.24 in 10.0 mi North 18.4 mph - N/A   Unknown
10:55 AM -4.0 °F -25.2 °F -11.2 °F 71% 30.25 in 10.0 mi North 16.1 mph 21.9 mph N/A   Unknown
11:15 AM -4.0 °F -25.8 °F -13.0 °F 65% 30.27 in 10.0 mi North 17.3 mph - N/A   Unknown
11:35 AM -4.0 °F -25.8 °F -13.0 °F 65% 30.28 in 10.0 mi North 17.3 mph - N/A   Unknown
11:55 AM -4.0 °F -24.5 °F -14.8 °F 60% 30.29 in 10.0 mi North 15.0 mph - N/A   Unknown
12:15 PM -5.8 °F -26.0 °F -14.8 °F 65% 30.31 in 10.0 mi North 13.8 mph - N/A   Unknown
12:35 PM -5.8 °F -26.8 °F -14.8 °F 65% 30.32 in 10.0 mi North 15.0 mph 18.4 mph N/A   Unknown
12:55 PM -5.8 °F -26.8 °F -16.6 °F 60% 30.33 in 10.0 mi North 15.0 mph - N/A   Unknown
1:15 PM -5.8 °F -26.8 °F -14.8 °F 65% 30.33 in 10.0 mi North 15.0 mph - N/A   Unknown
1:35 PM -5.8 °F -26.8 °F -16.6 °F 60% 30.34 in 10.0 mi North 15.0 mph 20.7 mph N/A   Unknown
1:55 PM -5.8 °F -27.5 °F -18.4 °F 55% 30.35 in 10.0 mi NNW 16.1 mph - N/A   Unknown
2:15 PM -5.8 °F -28.2 °F -18.4 °F 55% 30.36 in 10.0 mi NNW 17.3 mph - N/A   Unknown
2:35 PM -7.6 °F -29.8 °F -16.6 °F 65% 30.38 in 10.0 mi NW 16.1 mph - N/A   Unknown
2:55 PM -9.4 °F -32.8 °F -18.4 °F 65% 30.39 in 9.0 mi NW 17.3 mph - N/A   Unknown
3:15 PM -9.4 °F -32.8 °F -18.4 °F 65% 30.40 in 10.0 mi NW 17.3 mph - N/A   Unknown
3:35 PM -11.2 °F -35.2 °F -18.4 °F 70% 30.41 in 10.0 mi NW 17.3 mph - N/A   Unknown
3:55 PM -11.2 °F -33.7 °F -20.2 °F 64% 30.42 in 10.0 mi NW 15.0 mph - N/A   Unknown
4:15 PM -11.2 °F -32.1 °F -20.2 °F 64% 30.43 in 10.0 mi NW 12.7 mph - N/A   Unknown
4:35 PM -13.0 °F -34.3 °F -22.0 °F 64% 30.43 in 10.0 mi WNW 12.7 mph - N/A   Unknown
4:55 PM -14.8 °F -36.6 °F -20.2 °F 77% 30.44 in 10.0 mi NW 12.7 mph - N/A   Unknown
5:15 PM -14.8 °F -36.6 °F -23.8 °F 64% 30.46 in 10.0 mi WNW 12.7 mph - N/A   Unknown
5:35 PM -16.6 °F -38.9 °F -23.8 °F 70% 30.46 in 10.0 mi NW 12.7 mph - N/A   Unknown
5:55 PM -16.6 °F -38.9 °F -23.8 °F 70% 30.48 in 10.0 mi NW 12.7 mph - N/A   Unknown
6:15 PM -16.6 °F -39.8 °F -22.0 °F 76% 30.49 in 10.0 mi NW 13.8 mph - N/A   Unknown
6:35 PM -16.6 °F -38.9 °F -22.0 °F 76% 30.50 in 10.0 mi NW 12.7 mph - N/A   Unknown
6:55 PM -16.6 °F -35.7 °F -23.8 °F 70% 30.51 in 10.0 mi NW 9.2 mph - N/A   Unknown
7:15 PM -18.4 °F -37.9 °F -23.8 °F 76% 30.51 in 10.0 mi NW 9.2 mph - N/A   Unknown
7:35 PM -18.4 °F -39.1 °F - N/A% 30.50 in 10.0 mi NW 10.4 mph - N/A   Unknown
7:55 PM -16.6 °F -36.8 °F - N/A% 30.50 in 10.0 mi NNW 10.4 mph - N/A   Unknown
8:15 PM -16.6 °F -35.7 °F - N/A% 30.49 in 10.0 mi NNW 9.2 mph - N/A   Unknown
8:35 PM -18.4 °F -31.4 °F - N/A% 30.50 in 10.0 mi NW 4.6 mph - N/A   Unknown
8:55 PM -18.4 °F -33.4 °F - N/A% 30.50 in 10.0 mi NW 5.8 mph - N/A   Unknown
9:15 PM -18.4 °F -33.4 °F - N/A% 30.50 in 10.0 mi NW 5.8 mph - N/A   Unknown
9:35 PM -18.4 °F -35.1 °F - N/A% 30.49 in 10.0 mi NNW 6.9 mph - N/A   Unknown
9:55 PM -20.2 °F -33.5 °F -29.2 °F 63% 30.49 in 10.0 mi NW 4.6 mph - N/A   Unknown
10:15 PM -20.2 °F -30.9 °F - N/A% 30.49 in 10.0 mi West 3.5 mph - N/A   Unknown
10:35 PM -18.4 °F - -27.4 °F 63% 30.49 in 10.0 mi Calm Calm - N/A   Unknown
10:55 PM -22.0 °F - - N/A% 30.48 in 10.0 mi Calm Calm - N/A   Unknown
11:15 PM -23.8 °F - - N/A% 30.48 in 10.0 mi Calm Calm - N/A   Unknown
11:35 PM -25.6 °F -39.8 °F - N/A% 30.48 in 10.0 mi SSW 4.6 mph - N/A   Unknown
11:55 PM -23.8 °F - - N/A% 30.47 in 10.0 mi Calm Calm - N/A   Unknown